This is the latest recevied weather packets stored in our database for station/object KC9DRE. If no packets are shown the sender has not sent any weather packets the latest 1 day(s).
| Time | Temp. | Humidity | Pressure | Rain* | Wind** | Luminosity | Snow |
|---|---|---|---|---|---|---|---|
| 1778019474 | 16.11° C | 96% | 1007.9 hPa | 0 mm | 0 m/s | 22 W/m² | - |
| 1778019171 | 16.11° C | 95% | 1007.8 hPa | 0 mm | 0 m/s | 27 W/m² | - |
| 1778018868 | 16.11° C | 95% | 1007.8 hPa | 0 mm | 0 m/s | 23 W/m² | - |
| 1778018565 | 16.11° C | 95% | 1007.6 hPa | 0 mm | 0 m/s | 39 W/m² | - |
| 1778018263 | 16.11° C | 95% | 1008 hPa | 0 mm | 0 m/s | 19 W/m² | - |
| 1778017961 | 16.11° C | 95% | 1008.1 hPa | 0 mm | 0 m/s | 17 W/m² | - |
| 1778017659 | 16.67° C | 95% | 1008.1 hPa | 0 mm | 0 m/s | 28 W/m² | - |
| 1778017356 | 16.67° C | 94% | 1008 hPa | 0 mm | 0 m/s | 15 W/m² | - |
| 1778017053 | 16.67° C | 94% | 1007.9 hPa | 0 mm | 0 m/s | 16 W/m² | - |
| 1778016750 | 16.67° C | 94% | 1007.6 hPa | 0 mm | 0 m/s | 37 W/m² | - |
| 1778016446 | 16.67° C | 94% | 1007.6 hPa | 0 mm | 0 m/s | 66 W/m² | - |
| 1778016144 | 16.67° C | 94% | 1007.7 hPa | 0 mm | 0 m/s | 76 W/m² | - |
| 1778015840 | 16.67° C | 94% | 1007.5 hPa | 0 mm | 0 m/s | 71 W/m² | - |
| 1778015538 | 16.11° C | 94% | 1007.8 hPa | 0 mm | 0 m/s | 57 W/m² | - |
| 1778015234 | 16.11° C | 94% | 1007.9 hPa | 0 mm | 0 m/s | 51 W/m² | - |
| 1778014931 | 16.11° C | 95% | 1008 hPa | 0 mm | 0 m/s | 45 W/m² | - |
| 1778014628 | 16.11° C | 94% | 1008 hPa | 0 mm | 0 m/s | 82 W/m² | - |
| 1778014326 | 16.11° C | 94% | 1007.8 hPa | 0 mm | 0.45 m/s, 262° | 47 W/m² | - |
| 1778014022 | 16.11° C | 94% | 1008 hPa | 0 mm | 0 m/s | 69 W/m² | - |
| 1778013721 | 16.11° C | 94% | 1008 hPa | 0 mm | 0.89 m/s, 131° | 64 W/m² | - |
| 1778013418 | 16.11° C | 94% | 1008.1 hPa | 0 mm | 0.45 m/s, 20° | 114 W/m² | - |
| 1778013114 | 16.11° C | 94% | 1008.3 hPa | 0 mm | 0 m/s | 71 W/m² | - |
| 1778012810 | 16.11° C | 94% | 1008.3 hPa | 0 mm | 0.45 m/s, 239° | 117 W/m² | - |
| 1778012506 | 16.11° C | 94% | 1008.5 hPa | 0 mm | 0.89 m/s, 255° | 76 W/m² | - |
| 1778012203 | 16.11° C | 94% | 1008.3 hPa | 0 mm | 0.45 m/s, 96° | 55 W/m² | - |
* Rain latest hour (hover to see other rain measurements)
** Current wind speed in m/s (hover to see current wind gust speed)